Weather History for Andrews, TX

Change the Weather History Date:

Wednesday, November 6, 2013

  Actual Average (KMAF) Record (KMAF)
Temperature  
Mean Temperature 49 °F 57 °F  
Max Temperature 60 °F 70 °F 84 °F (1977)
Min Temperature 38 °F 43 °F 21 °F (1959)
Degree Days  
Heating Degree Days 16 9  
Month to date heating degree days 46  
Since 1 July heating degree days 155  
Moisture  
Dew Point 25 °F    
Average Humidity 43    
Maximum Humidity 78    
Minimum Humidity 18    
Precipitation  
Precipitation 0.03 in 0.02 in 0.15 in (1974)
Month to date precipitation 0.16  
Year to date precipitation 13.47  
Snow  
Snow 0.00 in - - ()
Month to date snowfall  
Since 1 July snowfall  
Since 1 September snowfall  
Snow Depth -    
Sea Level Pressure  
Sea Level Pressure 30.30 in    
Wind  
Wind Speed 11 mph (NNE)    
Max Wind Speed 20 mph    
Max Gust Speed 29 mph    
Visibility 10 miles    
Events Rain    
T = Trace of Precipitation, MM = Missing Value Source: NWS Daily Summary

Daily Weather History Graph

Daily Weather History Graph

Search for Another Location

Airport:

Trip Planner

Search our weather history database for the weather conditions in past years. The results will help you decide how hot, cold, wet, or windy it might be!

Date:

Astronomy

Nov. 06, 2013 Rise Set
Actual Time 7:11 AM CST 5:55 PM CST
Civil Twilight 6:46 AM CST 6:20 PM CST
Nautical Twilight 6:16 AM CST 6:50 PM CST
Astronomical Twilight 5:48 AM CST 7:19 PM CST
Moon 10:24 AM CST (11/6) 9:06 PM CST (11/6)
Length of Visible Light 11h 34m
Length of Day
10h 43m
Waxing Crescent, 14% of the Moon is Illuminated
Nov 6
Waxing Crescent
Nov 9
First Quarter
Nov 17
Full
Nov 25
Last Quarter
Dec 2
New

Hourly Weather History & Observations

Time (CST) Temp. Windchill Dew Point Humidity Pressure Visibility Wind Dir Wind Speed Gust Speed Precip Events Conditions
12:15 AM 55.0 °F - 36.5 °F 50% 30.10 in 10.0 mi NNE 19.6 mph 28.8 mph N/A Rain Light Rain
12:35 AM 50.9 °F - 38.3 °F 62% 30.12 in 10.0 mi NNE 17.3 mph 25.3 mph N/A   Scattered Clouds
12:55 AM 50.0 °F - 37.6 °F 62% 30.16 in 10.0 mi North 16.1 mph 25.3 mph N/A   Mostly Cloudy
1:15 AM 49.3 °F - 37.9 °F 65% 30.17 in 10.0 mi NNE 16.1 mph 23.0 mph N/A Rain Light Rain
1:35 AM 49.5 °F - 37.2 °F 63% 30.18 in 10.0 mi ENE 13.8 mph - N/A   Overcast
1:55 AM 48.4 °F - 37.4 °F 66% 30.18 in 10.0 mi NE 15.0 mph 19.6 mph N/A Rain Light Rain
2:15 AM 48.4 °F - 36.5 °F 64% 30.19 in 10.0 mi NNE 12.7 mph 21.9 mph N/A   Overcast
2:35 AM 48.2 °F - 35.8 °F 62% 30.19 in 10.0 mi North 12.7 mph 19.6 mph N/A   Overcast
2:55 AM 46.4 °F 41.9 °F 38.1 °F 73% 30.19 in 10.0 mi North 9.2 mph - N/A Rain Light Rain
3:15 AM 45.7 °F 41.0 °F 37.8 °F 74% 30.20 in 10.0 mi North 9.2 mph - N/A   Overcast
3:35 AM 45.9 °F 40.0 °F 36.7 °F 70% 30.21 in 10.0 mi North 12.7 mph - N/A   Overcast
3:55 AM 44.1 °F 39.0 °F 37.6 °F 78% 30.20 in 10.0 mi North 9.2 mph - N/A Rain Light Rain
4:15 AM 43.7 °F 37.7 °F 37.4 °F 78% 30.19 in 10.0 mi NNE 11.5 mph - N/A   Light Drizzle
4:35 AM 44.1 °F 38.6 °F 35.4 °F 72% 30.20 in 10.0 mi North 10.4 mph 16.1 mph N/A   Overcast
4:55 AM 44.1 °F 38.6 °F 36.1 °F 74% 30.21 in 10.0 mi North 10.4 mph - N/A Rain Light Rain
5:15 AM 43.7 °F 37.7 °F 37.0 °F 77% 30.23 in 10.0 mi North 11.5 mph - N/A   Overcast
5:35 AM 43.7 °F 37.7 °F 34.9 °F 71% 30.24 in 10.0 mi North 11.5 mph - N/A   Mostly Cloudy
5:55 AM 43.3 °F 37.2 °F 33.4 °F 68% 30.25 in 10.0 mi North 11.5 mph - N/A   Scattered Clouds
6:15 AM 42.1 °F 37.1 °F 33.1 °F 70% 30.26 in 10.0 mi North 8.1 mph - N/A   Clear
6:35 AM 41.0 °F 34.3 °F 32.0 °F 70% 30.26 in 10.0 mi North 11.5 mph - N/A   Clear
6:55 AM 40.3 °F 33.9 °F 31.3 °F 70% 30.27 in 10.0 mi North 10.4 mph - N/A   Clear
7:15 AM 39.4 °F 33.2 °F 30.7 °F 71% 30.28 in 10.0 mi North 9.2 mph - N/A   Scattered Clouds
7:35 AM 38.8 °F 32.6 °F 30.4 °F 72% 30.29 in 10.0 mi North 9.2 mph - N/A   Clear
7:55 AM 39.7 °F 33.2 °F 30.4 °F 69% 30.30 in 10.0 mi North 10.4 mph - N/A   Clear
8:15 AM 40.6 °F 33.4 °F 30.0 °F 66% 30.32 in 10.0 mi North 12.7 mph 19.6 mph N/A   Clear
8:35 AM 41.5 °F 33.2 °F 29.1 °F 61% 30.33 in 10.0 mi North 17.3 mph 21.9 mph N/A   Clear
8:55 AM 43.0 °F 36.0 °F 27.9 °F 55% 30.34 in 10.0 mi North 13.8 mph 21.9 mph N/A   Clear
9:15 AM 44.8 °F 38.3 °F 26.1 °F 48% 30.35 in 10.0 mi NNE 13.8 mph 17.3 mph N/A   Clear
9:35 AM 46.2 °F 40.5 °F 25.0 °F 43% 30.36 in 10.0 mi North 12.7 mph - N/A   Clear
9:55 AM 47.5 °F - 22.3 °F 37% 30.37 in 10.0 mi NE 11.5 mph - N/A   Clear
10:15 AM 48.4 °F - 21.7 °F 35% 30.37 in 10.0 mi NNE 9.2 mph - N/A   Clear
10:35 AM 49.6 °F - 21.7 °F 33% 30.37 in 10.0 mi NNE 10.4 mph - N/A   Clear
10:55 AM 50.7 °F - 20.3 °F 30% 30.37 in 10.0 mi NE 6.9 mph - N/A   Clear
11:15 AM 52.2 °F - 20.5 °F 29% 30.37 in 10.0 mi NNE 8.1 mph - N/A   Clear
11:35 AM 52.9 °F - 20.1 °F 28% 30.36 in 10.0 mi NNE 5.8 mph - N/A   Clear
11:55 AM 53.8 °F - 19.8 °F 26% 30.36 in 10.0 mi NNE 6.9 mph - N/A   Clear
12:15 PM 54.7 °F - 19.8 °F 26% 30.35 in 10.0 mi North 6.9 mph - N/A   Clear
12:35 PM 55.8 °F - 20.1 °F 25% 30.34 in 10.0 mi North 6.9 mph - N/A   Clear
12:55 PM 56.5 °F - 19.9 °F 24% 30.34 in 10.0 mi NNE 6.9 mph - N/A   Clear
1:15 PM 57.0 °F - 19.4 °F 23% 30.33 in 10.0 mi Calm Calm - N/A   Clear
1:35 PM 57.6 °F - 19.4 °F 23% 30.32 in 10.0 mi NNE 4.6 mph - N/A   Clear
1:55 PM 59.0 °F - 18.3 °F 21% 30.32 in 10.0 mi NNW 5.8 mph - N/A   Clear
2:15 PM 60.6 °F - 18.1 °F 19% 30.32 in 10.0 mi North 5.8 mph - N/A   Clear
2:35 PM 60.8 °F - 17.8 °F 19% 30.31 in 10.0 mi NNE 6.9 mph - 0.03 in   Clear
2:55 PM 59.9 °F - 17.1 °F 19% 30.31 in 10.0 mi North 3.5 mph - 0.03 in   Clear
3:15 PM 60.4 °F - 17.4 °F 19% 30.30 in 10.0 mi NE 3.5 mph - N/A   Clear
3:35 PM 60.8 °F - 16.9 °F 18% 30.30 in 10.0 mi NW 6.9 mph - N/A   Clear
3:55 PM 60.1 °F - 16.7 °F 18% 30.30 in 10.0 mi West 4.6 mph - N/A   Clear
4:15 PM 60.3 °F - 16.7 °F 18% 30.30 in 10.0 mi Calm Calm - N/A   Clear
4:35 PM 60.3 °F - 16.3 °F 18% 30.30 in 10.0 mi Calm Calm - N/A   Clear
4:55 PM 60.3 °F - 16.5 °F 18% 30.31 in 10.0 mi Calm Calm - N/A   Clear
5:15 PM 59.7 °F - 17.1 °F 19% 30.31 in 10.0 mi NNW 3.5 mph - N/A   Clear
5:35 PM 58.6 °F - 17.2 °F 20% 30.31 in 10.0 mi North 3.5 mph - N/A   Clear
5:55 PM 56.5 °F - 17.6 °F 22% 30.32 in 10.0 mi Calm Calm - N/A   Clear
6:15 PM 52.9 °F - 17.4 °F 25% 30.32 in 10.0 mi NE 4.6 mph - N/A   Clear
6:35 PM 49.6 °F - 18.1 °F 29% 30.32 in 10.0 mi NE 3.5 mph - N/A   Clear
6:55 PM 50.0 °F - 18.0 °F 28% 30.32 in 10.0 mi Calm Calm - N/A   Clear
7:15 PM 50.9 °F - 17.2 °F 26% 30.34 in 10.0 mi Calm Calm - N/A   Clear
7:35 PM 49.1 °F - 18.0 °F 29% 30.34 in 10.0 mi Calm Calm - N/A   Clear
7:55 PM 49.3 °F - 18.0 °F 29% 30.34 in 10.0 mi ESE 3.5 mph - N/A   Clear
8:15 PM 46.8 °F - 18.5 °F 32% 30.35 in 10.0 mi SE 4.6 mph - N/A   Clear
8:35 PM 46.6 °F - 17.6 °F 32% 30.35 in 10.0 mi SSE 4.6 mph - N/A   Clear
8:55 PM 46.0 °F 44.8 °F 17.6 °F 32% 30.36 in 10.0 mi South 3.5 mph - N/A   Clear
9:15 PM 45.7 °F 43.4 °F 20.1 °F 36% 30.36 in 10.0 mi SSE 4.6 mph - N/A   Clear
9:35 PM 46.2 °F 45.0 °F 18.1 °F 33% 30.36 in 10.0 mi South 3.5 mph - N/A   Clear
9:55 PM 45.5 °F 44.2 °F 17.6 °F 33% 30.36 in 10.0 mi SSE 3.5 mph - N/A   Clear
10:15 PM 45.3 °F 44.0 °F 17.6 °F 33% 30.37 in 10.0 mi SSE 3.5 mph - N/A   Clear
10:35 PM 44.8 °F 43.3 °F 17.6 °F 34% 30.37 in 10.0 mi SSE 3.5 mph - N/A   Clear
10:55 PM 44.2 °F 42.7 °F 17.6 °F 34% 30.37 in 10.0 mi South 3.5 mph - N/A   Clear
11:15 PM 41.9 °F 40.0 °F 18.0 °F 38% 30.38 in 10.0 mi SSE 3.5 mph - N/A   Clear
11:35 PM 42.8 °F 39.3 °F 19.0 °F 39% 30.38 in 10.0 mi South 5.8 mph - N/A   Clear
11:55 PM 42.6 °F 39.0 °F 20.7 °F 42% 30.38 in 10.0 mi South 5.8 mph - N/A   Clear